Content
SEND FEEDBACK

Daily
Averages
Monthly
Summary
Canada

VANCOUVER, BRITISH COLUMBIA


Home > North America > Canada > British Columbia
Elevation: 7 feet     Latitude: 49 11N     Longitude: 123 10W

WEATHER
 
SELECT A DAY
Number of Records: 249,596;   Date Range: 5/15/97 - 8/20/14
 
SHARE

PRINT THIS DATA

[ ← Previous Day ]
WEATHER ALMANAC - JULY 18, 2013
[ Next Day → ]
[ °C ]   °F
Weather ElementAverageHighLow
Temperature62.7 °F73.4 °F (5:15 pm)55.4 °F (4:55 am)
Dewpoint54.9 °F57.2 °F (1:15 pm)51.8 °F (1:55 am)
Humidity76.2 %94 % (5:15 am)57 % (5:15 pm)
Barometer30.16 in30.22 in (8:55 am)30.10 in (10:55 pm)
Wind Speed5.7 mph12.7 mph (1:15 am)
Weather ElementAverage
Visibility9.5 mi
Wind DirectionSSE (154.3 °)

Weather ElementTotal
Precipitation---
Heating Degree Days0.6 (Base 65)
Growing Degree Days14.4 (Base 50)
Averaged from 68 records on July 18, 2013
WEATHER CONDITIONS BREAKOUT
WIND DIRECTION BREAKOUT
WEATHER BY HOUR - JULY 18, 2013
[ °C ]   °F
Local TimeTemperatureDewpointHumidityBarometerVisibilityWind DirectionWind SpeedGust SpeedPrecipitationEventsConditions
12:35 AM59.0 °F53.6 °F82 %30.16 in10.0 miSouth (180°)6.9 mphClear
12:55 AM59.0 °F53.6 °F82 %30.16 in10.0 miSouth (180°)9.2 mphClear
1:15 AM59.0 °F53.6 °F82 %30.16 in10.0 miSouth (190°)12.7 mphClear
1:35 AM59.0 °F53.6 °F82 %30.17 in10.0 miSouth (180°)9.2 mphClear
1:55 AM57.2 °F51.8 °F82 %30.17 in10.0 miSouth (190°)9.2 mphClear
2:15 AM57.2 °F51.8 °F82 %30.17 in10.0 miSouth (180°)6.9 mphClear
2:35 AM57.2 °F51.8 °F82 %30.17 in10.0 miSouth (180°)8.1 mphClear
2:55 AM57.2 °F51.8 °F82 %30.17 in10.0 miSouth (190°)9.2 mphClear
3:15 AM57.2 °F51.8 °F82 %30.17 in10.0 miSouth (190°)10.4 mphClear
3:35 AM57.2 °F51.8 °F82 %30.18 in10.0 miSouth (190°)9.2 mphClear
3:55 AM57.2 °F51.8 °F82 %30.17 in10.0 miSouth (180°)8.1 mphClear
4:15 AM57.2 °F51.8 °F82 %30.18 in10.0 miSSE (160°)3.5 mphClear
4:35 AM57.2 °F53.6 °F88 %30.18 in10.0 miSSE (160°)3.5 mphClear
4:55 AM55.4 °F51.8 °F88 %30.18 in10.0 miSouth (170°)4.6 mphClear
5:15 AM55.4 °F53.6 °F94 %30.18 in10.0 miSouth (170°)4.6 mphScattered Clouds
5:35 AM57.2 °F53.6 °F88 %30.18 in10.0 miSouth (170°)4.6 mphMostly Cloudy
5:55 AM57.2 °F53.6 °F88 %30.19 in10.0 miSouth (180°)5.8 mphMostly Cloudy
6:15 AM57.2 °F53.6 °F88 %30.19 in10.0 miSouth (190°)9.2 mphMostly Cloudy
6:35 AM57.2 °F53.6 °F88 %30.19 in9.0 miSouth (180°)5.8 mphOvercast
6:55 AM57.2 °F53.6 °F88 %30.20 in10.0 miSouth (170°)5.8 mphOvercast
7:15 AM57.2 °F53.6 °F88 %30.20 in10.0 miSouth (180°)3.5 mphOvercast
7:35 AM59.0 °F53.6 °F82 %30.20 in10.0 miSouth (170°)3.5 mphOvercast
7:55 AM59.0 °F53.6 °F82 %30.21 in9.0 miCalmOvercast
8:15 AM59.0 °F53.6 °F82 %30.21 in8.0 miSouth (170°)3.5 mphOvercast
8:35 AM59.0 °F53.6 °F82 %30.21 in9.0 miSouth (170°)4.6 mphOvercast
8:55 AM59.0 °F53.6 °F82 %30.22 in10.0 miCalmOvercast
9:15 AM59.0 °F53.6 °F82 %30.22 in9.0 miSouth (180°)4.6 mphOvercast
9:35 AM59.0 °F53.6 °F82 %30.22 in9.0 miCalmMostly Cloudy
9:55 AM59.0 °F55.4 °F88 %30.22 in9.0 miCalmOvercast
10:15 AM60.8 °F55.4 °F82 %30.22 in8.0 miCalmOvercast
10:35 AM60.8 °F55.4 °F82 %30.21 in9.0 miCalmMostly Cloudy
10:55 AM62.6 °F55.4 °F77 %30.21 in9.0 miCalmOvercast
11:15 AM62.6 °F55.4 °F77 %30.21 in8.0 miNorth (350°)3.5 mphScattered Clouds
11:35 AM62.6 °F55.4 °F77 %30.21 in9.0 miNNE (20°)4.6 mphClear
11:55 AM64.4 °F55.4 °F73 %30.21 in9.0 miNorth (360°)4.6 mphClear
12:15 PM64.4 °F55.4 °F73 %30.20 in10.0 miNorth (10°)5.8 mphClear
12:35 PM64.4 °F55.4 °F73 %30.20 in9.0 miNNW (340°)4.6 mphClear
12:55 PM66.2 °F55.4 °F68 %30.20 in9.0 miNorth (10°)3.5 mphClear
1:15 PM66.2 °F57.2 °F73 %30.19 in9.0 miNorth (350°)4.6 mphClear
1:35 PM66.2 °F55.4 °F68 %30.19 in8.0 miNorth (10°)4.6 mphClear
1:55 PM66.2 °F57.2 °F73 %30.18 in9.0 miNorth (360°)5.8 mphClear
2:15 PM66.2 °F55.4 °F68 %30.18 in10.0 miNorth (350°)4.6 mphClear
3:35 PM68.0 °F57.2 °F68 %30.16 in9.0 miNorth (10°)5.8 mphClear
3:55 PM69.8 °F57.2 °F64 %30.15 in9.0 miNorth (10°)4.6 mphClear
4:15 PM69.8 °F57.2 °F64 %30.15 in8.0 miCalmClear
4:35 PM71.6 °F57.2 °F60 %30.14 in10.0 miCalmClear
4:55 PM71.6 °F57.2 °F60 %30.14 in10.0 miCalmClear
5:15 PM73.4 °F57.2 °F57 %30.13 in10.0 miSSW (200°)5.8 mphClear
5:35 PM73.4 °F57.2 °F57 %30.12 in9.0 miSouth (170°)5.8 mphClear
5:55 PM71.6 °F57.2 °F60 %30.12 in10.0 miSSW (200°)9.2 mphClear
6:15 PM71.6 °F57.2 °F60 %30.12 in9.0 miSSW (200°)10.4 mphClear
6:35 PM71.6 °F57.2 °F60 %30.12 in10.0 miSouth (190°)6.9 mphClear
6:55 PM71.6 °F57.2 °F60 %30.11 in10.0 miSouth (190°)8.1 mphClear
7:15 PM71.6 °F57.2 °F60 %30.11 in10.0 miSSW (200°)10.4 mphClear
7:35 PM69.8 °F57.2 °F64 %30.11 in10.0 miSouth (180°)6.9 mphClear
7:55 PM68.0 °F57.2 °F68 %30.11 in10.0 miSouth (190°)6.9 mphClear
8:15 PM68.0 °F57.2 °F68 %30.11 in9.0 miSouth (180°)8.1 mphClear
8:35 PM66.2 °F57.2 °F73 %30.11 in9.0 miSouth (180°)5.8 mphClear
8:55 PM64.4 °F55.4 °F73 %30.11 in9.0 miSouth (180°)5.8 mphClear
9:15 PM64.4 °F55.4 °F73 %30.11 in10.0 miSouth (170°)8.1 mphClear
9:35 PM62.6 °F55.4 °F77 %30.11 in10.0 miSouth (180°)8.1 mphClear
9:55 PM62.6 °F55.4 °F77 %30.11 in10.0 miSouth (180°)8.1 mphClear
10:15 PM62.6 °F55.4 °F77 %30.11 in10.0 miSouth (180°)6.9 mphClear
10:35 PM62.6 °F55.4 °F77 %30.11 in10.0 miSouth (180°)9.2 mphClear
10:55 PM62.6 °F55.4 °F77 %30.10 in10.0 miSouth (180°)10.4 mphRainLight Rain
11:15 PM62.6 °F55.4 °F77 %30.10 in10.0 miSouth (190°)10.4 mphClear
11:35 PM60.8 °F55.4 °F82 %30.10 in10.0 miSouth (170°)6.9 mphClear
11:55 PM60.8 °F55.4 °F82 %30.11 in10.0 miSouth (170°)6.9 mphClear
Hourly data recorded from CZBB, located miles away from Vancouver, British Columbia







STORIES FROM OUR PARTNERS